Weather History for KBAN - March, 2014

Change the Weather History Date:

Tuesday, March 18, 2014

  Actual Average (KTVL) Record (KTVL)
Temperature  
Mean Temperature 30 °F 36 °F  
Max Temperature 50 °F 49 °F 63 °F (2004)
Min Temperature 12 °F 23 °F 5 °F (1977)
Degree Days  
Heating Degree Days 35 29  
Month to date heating degree days 549  
Since 1 July heating degree days 5786  
Cooling Degree Days 0 0  
Month to date cooling degree days 0  
Year to date cooling degree days 0  
Moisture  
Dew Point 8 °F    
Average Humidity 45    
Maximum Humidity 77    
Minimum Humidity 18    
Precipitation  
Precipitation 0.00 in - 0.51 in (2011)
Month to date precipitation  
Year to date precipitation  
Sea Level Pressure  
Sea Level Pressure 30.06 in    
Wind  
Wind Speed 2 mph (ENE)    
Max Wind Speed 13 mph    
Max Gust Speed -    
Visibility 10 miles    
Events      
T = Trace of Precipitation, MM = Missing Value Source: NWS Daily Summary

Daily Weather History Graph

Daily Weather History Graph

Search for Another Location

Airport or City:

Trip Planner

Search our weather history database for the weather conditions in past years. The results will help you decide how hot, cold, wet, or windy it might be!

Date:

Astronomy

Mar. 18, 2014 Rise Set
Actual Time 7:04 AM PDT 7:08 PM PDT
Civil Twilight 6:38 AM PDT 7:34 PM PDT
Nautical Twilight 6:07 AM PDT 8:05 PM PDT
Astronomical Twilight 5:36 AM PDT 8:36 PM PDT
Moon 9:28 PM PDT (3/18) 7:58 AM PDT (3/18)
Length of Visible Light 12h 56m
Length of Day
12h 03m
Waning Gibbous, 96% of the Moon is Illuminated
Mar 18
Waning Gibbous
Mar 23
Last Quarter
Mar 30
New
Apr 7
First Quarter
Apr 15
Full

Hourly Weather History & Observations

Time (PDT) Temp. Windchill Dew Point Humidity Pressure Visibility Wind Dir Wind Speed Gust Speed Precip Events Conditions
12:52 AM 21.9 °F - 10.0 °F 60% 30.01 in 10.0 mi Calm Calm - N/A   Clear
1:52 AM 19.9 °F 14.9 °F 9.0 °F 62% 30.01 in 10.0 mi North 3.5 mph - N/A   Clear
2:52 AM 18.0 °F - 8.1 °F 65% 30.02 in 10.0 mi Calm Calm - N/A   Clear
3:52 AM 18.0 °F - 8.1 °F 65% 30.02 in 10.0 mi Calm Calm - N/A   Clear
4:52 AM 15.1 °F - 8.1 °F 74% 30.04 in 10.0 mi Calm Calm - N/A   Clear
5:52 AM 12.9 °F - 7.0 °F 77% 30.08 in 10.0 mi Calm Calm - N/A   Clear
6:52 AM 15.1 °F - 7.0 °F 70% 30.08 in 10.0 mi Calm Calm - N/A   Clear
7:52 AM 15.1 °F - 8.1 °F 74% 30.12 in 10.0 mi Calm Calm - N/A   Clear
8:52 AM 23.0 °F - 10.9 °F 60% 30.09 in 10.0 mi Calm Calm - N/A   Clear
9:52 AM 30.9 °F - 10.9 °F 43% 30.07 in 10.0 mi Calm Calm - N/A   Clear
10:52 AM 36.0 °F - 10.0 °F 34% 30.07 in 10.0 mi Calm Calm - N/A   Clear
11:52 AM 39.9 °F 35.1 °F 9.0 °F 28% 30.05 in 10.0 mi SE 6.9 mph - N/A   Clear
12:52 PM 45.0 °F 43.5 °F 8.1 °F 22% 30.02 in 10.0 mi Variable 3.5 mph - N/A   Clear
1:52 PM 46.9 °F - 8.1 °F 21% 30.00 in 10.0 mi Variable 5.8 mph - N/A   Clear
2:52 PM 48.9 °F - 7.0 °F 18% 29.98 in 10.0 mi ESE 6.9 mph - N/A   Clear
3:52 PM 48.9 °F - 8.1 °F 19% 29.98 in 10.0 mi NE 8.1 mph - N/A   Clear
4:52 PM 46.9 °F - 8.1 °F 21% 30.00 in 10.0 mi East 12.7 mph - N/A   Clear
5:52 PM 46.0 °F 41.9 °F 8.1 °F 21% 30.02 in 10.0 mi ENE 8.1 mph - N/A   Clear
6:52 PM 39.0 °F 35.7 °F 8.1 °F 28% 30.07 in 10.0 mi West 4.6 mph - N/A   Clear
7:52 PM 35.1 °F - 6.1 °F 30% 30.12 in 10.0 mi Calm Calm - N/A   Clear
8:52 PM 30.9 °F 27.5 °F 6.1 °F 35% 30.13 in 10.0 mi NNW 3.5 mph - N/A   Clear
9:52 PM 27.0 °F - 8.1 °F 45% 30.13 in 10.0 mi Calm Calm - N/A   Clear
10:52 PM 24.1 °F - 8.1 °F 51% 30.13 in 10.0 mi Calm Calm - N/A   Clear
11:52 PM 23.0 °F - 8.1 °F 53% 30.12 in 10.0 mi Calm Calm - N/A   Clear